Simultaneous Nadir Overpasses (SNOs) Predictions

Prediction of SNOs between FY3D and AQUA Satellite Orbit:

Table of predicted SNOs for the next 14.0 days since TLE Epoch: 4/8/2023
Index Date (FY3D) Time (FY3D) Lat,Lon (FY3D) SZA (FY3D ) Date (AQUA) Time (AQUA) Lat,Lon (AQUA) SZA (AQUA ) Distance(km) Time Diff (sec)
1 04/08/2023 06:47:12 78.20, 61.01 71.58 04/08/2023 06:47:33 78.21, 60.90 71.59 2.79 21
2 04/08/2023 07:37:43 -77.65,-128.81 109.14 04/08/2023 07:36:45 -77.66,-128.92 109.11 2.75 58
3 04/10/2023 20:32:56 -78.46, 33.07 109.03 04/10/2023 20:33:44 -78.46, 33.14 109.06 1.56 48
4 04/10/2023 21:23:29 77.93,-156.61 70.26 04/10/2023 21:22:57 77.94,-156.66 70.27 1.21 32
5 04/13/2023 10:18:39 78.63, 5.69 70.24 04/13/2023 10:19:53 78.65, 5.61 70.24 3.26 74
6 04/13/2023 11:09:09 -78.06, 176.35 110.54 04/13/2023 11:09:04 -78.07, 176.23 110.52 2.98 5
7 04/16/2023 00:54:52 78.27, 148.76 68.81 04/16/2023 00:55:11 78.28, 148.73 68.81 0.73 19
8 04/16/2023 01:45:24 -77.76, -41.17 111.86 04/16/2023 01:44:24 -77.76, -41.21 111.84 1.04 60
9 04/18/2023 14:40:31 -78.36, 121.87 111.99 04/18/2023 14:41:15 -78.37, 121.78 111.99 2.14 44
10 04/18/2023 15:31:09 78.04, -68.98 67.58 04/18/2023 15:30:32 78.03, -68.92 67.58 1.45 37
11 04/21/2023 04:26:15 78.60, 94.07 67.44 04/21/2023 04:27:21 78.59, 94.12 67.41 1.16 66



Historial Predications of SNOs between FY3D and AQUA
